Time,TemperatureF,DewpointF,PressureIn,WindDirection,WindDirectionDegrees,WindSpeedMPH,WindSpeedGustMPH,Humidity,HourlyPrecipIn,Conditions,Clouds,dailyrainin,SoftwareType,DateUTC
2013-01-21 00:00:00,53.6,43.4,30.00,ENE,64,0.0,0.0,68,0.00,,---,0.00,VWS V14.01,2013-01-21 05:00:00,
2013-01-21 00:01:00,53.6,43.0,30.00,ENE,64,0.0,0.0,67,0.00,,---,0.00,VWS V14.01,2013-01-21 05:01:00,
2013-01-21 00:06:00,53.6,43.0,30.00,ENE,64,0.0,0.0,67,0.00,,---,0.00,VWS V14.01,2013-01-21 05:06:00,
2013-01-21 00:11:00,53.4,43.2,30.00,ENE,64,0.0,0.0,68,0.00,,---,0.00,VWS V14.01,2013-01-21 05:11:00,
2013-01-21 00:17:00,53.4,43.2,30.00,ENE,64,0.0,0.0,68,0.00,,---,0.00,VWS V14.01,2013-01-21 05:17:00,
2013-01-21 00:22:00,53.2,43.1,30.00,ENE,64,0.0,0.0,68,0.00,,---,0.00,VWS V14.01,2013-01-21 05:22:00,
2013-01-21 00:27:00,53.2,43.1,30.00,ENE,64,0.0,0.0,68,0.00,,---,0.00,VWS V14.01,2013-01-21 05:27:00,
2013-01-21 00:32:00,53.1,42.9,30.00,ENE,64,0.0,0.0,68,0.00,,---,0.00,VWS V14.01,2013-01-21 05:32:00,
2013-01-21 00:37:00,53.2,43.1,30.00,ENE,64,0.0,0.0,68,0.00,,---,0.00,VWS V14.01,2013-01-21 05:37:00,
2013-01-21 00:42:00,53.2,43.5,30.00,ENE,64,0.0,0.0,69,0.00,,---,0.00,VWS V14.01,2013-01-21 05:42:00,
2013-01-21 00:47:00,53.2,43.1,30.00,ENE,64,0.0,0.0,68,0.00,,---,0.00,VWS V14.01,2013-01-21 05:47:00,
2013-01-21 00:52:00,53.2,43.1,30.00,ENE,64,0.0,0.0,68,0.00,,---,0.00,VWS V14.01,2013-01-21 05:52:00,
2013-01-21 00:57:00,53.1,43.3,30.00,ENE,64,0.0,0.0,69,0.00,,---,0.00,VWS V14.01,2013-01-21 05:57:00,
2013-01-21 01:02:00,53.1,43.3,30.00,ENE,64,0.0,0.0,69,0.00,,---,0.00,VWS V14.01,2013-01-21 06:02:00,
2013-01-21 01:07:00,53.1,43.3,30.00,NNW,344,0.0,0.0,69,0.00,,---,0.00,VWS V14.01,2013-01-21 06:07:00,
2013-01-21 01:12:00,53.1,43.3,30.00,NNW,344,0.0,0.0,69,0.00,,---,0.00,VWS V14.01,2013-01-21 06:12:00,
2013-01-21 01:17:00,53.1,43.3,30.00,NNW,344,0.0,0.0,69,0.00,,---,0.00,VWS V14.01,2013-01-21 06:17:00,
2013-01-21 01:22:00,53.1,43.7,30.00,NNW,344,0.0,0.0,70,0.00,,---,0.00,VWS V14.01,2013-01-21 06:22:00,
2013-01-21 01:27:00,53.1,44.5,30.00,NNW,345,0.0,0.0,72,0.00,,---,0.00,VWS V14.01,2013-01-21 06:27:00,
2013-01-21 01:32:00,52.9,44.7,30.00,NNW,344,0.0,0.0,74,0.00,,---,0.00,VWS V14.01,2013-01-21 06:32:00,
2013-01-21 01:37:00,52.7,44.8,30.00,NNW,344,0.0,0.0,75,0.00,,---,0.00,VWS V14.01,2013-01-21 06:37:00,
2013-01-21 01:42:00,52.7,44.8,30.00,NNW,344,0.0,0.0,75,0.00,,---,0.00,VWS V14.01,2013-01-21 06:42:00,
2013-01-21 01:47:00,52.7,44.8,30.00,NNW,345,0.0,0.0,75,0.00,,---,0.00,VWS V14.01,2013-01-21 06:47:00,
2013-01-21 01:52:00,52.7,44.8,30.00,NNW,344,0.0,0.0,75,0.00,,---,0.00,VWS V14.01,2013-01-21 06:52:00,
2013-01-21 01:57:00,52.7,45.2,30.00,NNW,344,0.0,0.0,76,0.00,,---,0.00,VWS V14.01,2013-01-21 06:57:00,
2013-01-21 02:02:00,52.5,45.0,30.00,NNW,344,0.0,0.0,76,0.00,,---,0.00,VWS V14.01,2013-01-21 07:02:00,
2013-01-21 02:07:00,52.5,45.0,30.00,NNW,345,0.0,0.0,76,0.00,,---,0.00,VWS V14.01,2013-01-21 07:07:00,
2013-01-21 02:12:00,52.5,45.0,30.00,NNW,344,0.0,0.0,76,0.00,,---,0.00,VWS V14.01,2013-01-21 07:12:00,
2013-01-21 02:17:00,52.7,45.2,30.00,NNW,344,0.0,0.0,76,0.00,,---,0.00,VWS V14.01,2013-01-21 07:17:00,
2013-01-21 02:22:00,52.7,45.2,30.00,NNW,344,0.0,0.0,76,0.00,,---,0.00,VWS V14.01,2013-01-21 07:22:00,
2013-01-21 02:27:00,52.5,45.0,30.00,NNW,344,0.0,0.0,76,0.00,,---,0.00,VWS V14.01,2013-01-21 07:27:00,
2013-01-21 02:32:00,52.3,45.2,30.00,NNW,345,0.0,0.0,77,0.00,,---,0.00,VWS V14.01,2013-01-21 07:32:00,
2013-01-21 02:37:00,52.3,45.2,30.00,NNW,345,0.0,0.0,77,0.00,,---,0.00,VWS V14.01,2013-01-21 07:37:00,
2013-01-21 02:42:00,52.3,45.2,30.00,NNW,344,0.0,0.0,77,0.00,,---,0.00,VWS V14.01,2013-01-21 07:42:00,
2013-01-21 02:47:00,52.3,45.6,30.00,NNW,344,0.0,0.0,78,0.00,,---,0.00,VWS V14.01,2013-01-21 07:47:00,
2013-01-21 02:52:00,52.3,45.6,30.00,NNW,344,0.0,0.0,78,0.00,,---,0.00,VWS V14.01,2013-01-21 07:52:00,
2013-01-21 02:57:00,52.5,46.1,29.97,NNW,344,0.0,0.0,79,0.00,,---,0.00,VWS V14.01,2013-01-21 07:57:00,
2013-01-21 03:02:00,52.5,46.1,29.97,NNW,344,0.0,0.0,79,0.00,,---,0.00,VWS V14.01,2013-01-21 08:02:00,
2013-01-21 03:07:00,52.5,46.1,29.97,NNW,344,0.0,0.0,79,0.00,,---,0.00,VWS V14.01,2013-01-21 08:07:00,
2013-01-21 03:13:00,52.7,45.9,29.97,NNW,344,0.0,0.0,78,0.00,,---,0.00,VWS V14.01,2013-01-21 08:13:00,
2013-01-21 03:18:00,52.5,45.8,29.97,NNW,344,0.0,0.0,78,0.00,,---,0.00,VWS V14.01,2013-01-21 08:18:00,
2013-01-21 03:23:00,52.3,45.6,29.97,NNW,344,0.0,0.0,78,0.00,,---,0.00,VWS V14.01,2013-01-21 08:23:00,
2013-01-21 03:28:00,52.2,45.4,29.97,NNW,344,0.0,0.0,78,0.00,,---,0.00,VWS V14.01,2013-01-21 08:28:00,
2013-01-21 03:33:00,52.0,45.2,29.97,NNW,344,0.0,0.0,78,0.00,,---,0.00,VWS V14.01,2013-01-21 08:33:00,
2013-01-21 03:38:00,52.0,45.2,29.97,NNW,344,0.0,0.0,78,0.00,,---,0.00,VWS V14.01,2013-01-21 08:38:00,
2013-01-21 03:43:00,52.0,45.2,29.97,NNW,344,0.0,0.0,78,0.00,,---,0.00,VWS V14.01,2013-01-21 08:43:00,
2013-01-21 03:48:00,52.0,45.2,29.97,NNW,344,0.0,0.0,78,0.00,,---,0.00,VWS V14.01,2013-01-21 08:48:00,
2013-01-21 03:53:00,52.0,45.2,29.97,NNW,344,0.0,0.0,78,0.00,,---,0.00,VWS V14.01,2013-01-21 08:53:00,
2013-01-21 03:58:00,52.0,45.2,29.97,NNW,344,0.0,0.0,78,0.00,,---,0.00,VWS V14.01,2013-01-21 08:58:00,
2013-01-21 04:03:00,51.8,45.1,29.97,NNW,344,0.0,0.0,78,0.00,,---,0.00,VWS V14.01,2013-01-21 09:03:00,
2013-01-21 04:08:00,51.8,45.1,29.97,NNW,344,0.0,0.0,78,0.00,,---,0.00,VWS V14.01,2013-01-21 09:08:00,
2013-01-21 04:13:00,51.8,45.1,29.97,NNW,344,0.0,0.0,78,0.00,,---,0.00,VWS V14.01,2013-01-21 09:13:00,
2013-01-21 04:18:00,51.8,45.1,29.97,NNW,344,0.0,0.0,78,0.00,,---,0.00,VWS V14.01,2013-01-21 09:18:00,
2013-01-21 04:23:00,51.8,45.1,29.97,NNW,344,0.0,0.0,78,0.00,,---,0.00,VWS V14.01,2013-01-21 09:23:00,
2013-01-21 04:28:00,51.6,44.9,29.97,NNW,344,0.0,0.0,78,0.00,,---,0.00,VWS V14.01,2013-01-21 09:28:00,
2013-01-21 04:33:00,51.6,44.9,29.97,NNW,344,0.0,0.0,78,0.00,,---,0.00,VWS V14.01,2013-01-21 09:33:00,
2013-01-21 04:38:00,51.3,44.5,29.97,NNW,344,0.0,0.0,78,0.00,,---,0.00,VWS V14.01,2013-01-21 09:38:00,
2013-01-21 04:43:00,51.3,44.9,29.97,WNW,284,0.0,0.0,79,0.00,,---,0.00,VWS V14.01,2013-01-21 09:43:00,
2013-01-21 04:48:00,51.3,44.9,29.97,WNW,285,0.0,0.0,79,0.00,,---,0.00,VWS V14.01,2013-01-21 09:48:00,
2013-01-21 04:53:00,51.1,44.7,29.97,WNW,285,0.0,0.0,79,0.00,,---,0.00,VWS V14.01,2013-01-21 09:53:00,
2013-01-21 04:58:00,51.3,44.9,29.97,WNW,285,0.0,0.0,79,0.00,,---,0.00,VWS V14.01,2013-01-21 09:58:00,
2013-01-21 05:03:00,51.1,44.7,29.97,WNW,285,0.0,0.0,79,0.00,,---,0.00,VWS V14.01,2013-01-21 10:03:00,
2013-01-21 05:08:00,51.1,44.7,29.97,WNW,285,0.0,0.0,79,0.00,,---,0.00,VWS V14.01,2013-01-21 10:08:00,
2013-01-21 05:13:00,51.1,44.7,29.97,WNW,285,0.0,0.0,79,0.00,,---,0.00,VWS V14.01,2013-01-21 10:13:00,
2013-01-21 05:18:00,50.9,44.5,29.97,WNW,285,0.0,0.0,79,0.00,,---,0.00,VWS V14.01,2013-01-21 10:18:00,
2013-01-21 05:23:00,50.9,44.5,29.97,WNW,285,0.0,0.0,79,0.00,,---,0.00,VWS V14.01,2013-01-21 10:23:00,
2013-01-21 05:28:00,50.9,44.5,29.97,WNW,285,0.0,0.0,79,0.00,,---,0.00,VWS V14.01,2013-01-21 10:28:00,
2013-01-21 05:33:00,50.9,44.5,29.97,WNW,284,0.0,0.0,79,0.00,,---,0.00,VWS V14.01,2013-01-21 10:33:00,
2013-01-21 05:38:00,51.1,44.4,29.97,WNW,285,0.0,0.0,78,0.00,,---,0.00,VWS V14.01,2013-01-21 10:38:00,
2013-01-21 05:43:00,51.1,44.4,29.97,WNW,285,3.1,3.1,78,0.00,,---,0.00,VWS V14.01,2013-01-21 10:43:00,
2013-01-21 05:48:00,51.1,44.4,29.97,WNW,285,0.0,0.0,78,0.00,,---,0.00,VWS V14.01,2013-01-21 10:48:00,
2013-01-21 05:53:00,51.1,44.4,29.97,WNW,285,0.0,0.0,78,0.00,,---,0.00,VWS V14.01,2013-01-21 10:53:00,
2013-01-21 05:58:00,51.1,44.0,29.97,WNW,285,0.0,0.0,77,0.00,,---,0.00,VWS V14.01,2013-01-21 10:58:00,
2013-01-21 06:03:00,51.1,44.0,29.97,WNW,285,0.0,0.0,77,0.00,,---,0.00,VWS V14.01,2013-01-21 11:03:00,
2013-01-21 06:08:00,51.1,44.0,29.97,WNW,285,0.0,0.0,77,0.00,,---,0.00,VWS V14.01,2013-01-21 11:08:00,
2013-01-21 06:13:00,51.1,43.7,29.97,WNW,285,0.0,0.0,76,0.00,,---,0.00,VWS V14.01,2013-01-21 11:13:00,
2013-01-21 06:18:00,50.9,43.1,29.97,WNW,285,0.0,0.0,75,0.00,,---,0.00,VWS V14.01,2013-01-21 11:18:00,
2013-01-21 06:23:00,50.9,43.1,29.97,WNW,285,0.0,0.0,75,0.00,,---,0.00,VWS V14.01,2013-01-21 11:23:00,
2013-01-21 06:28:00,50.9,43.1,29.97,WNW,285,0.0,0.0,75,0.00,,---,0.00,VWS V14.01,2013-01-21 11:28:00,
2013-01-21 06:33:00,50.7,42.9,29.97,WNW,285,0.0,0.0,75,0.00,,---,0.00,VWS V14.01,2013-01-21 11:33:00,
2013-01-21 06:38:00,50.9,43.5,29.97,WNW,284,0.0,0.0,76,0.00,,---,0.00,VWS V14.01,2013-01-21 11:38:00,
2013-01-21 06:43:00,51.1,44.4,29.97,WNW,285,0.0,0.0,78,0.00,,---,0.00,VWS V14.01,2013-01-21 11:43:00,
2013-01-21 06:48:00,51.3,44.5,29.97,WNW,285,0.0,0.0,78,0.00,,---,0.00,VWS V14.01,2013-01-21 11:48:00,
2013-01-21 06:53:00,51.3,44.5,29.97,WNW,285,0.0,0.0,78,0.00,,---,0.00,VWS V14.01,2013-01-21 11:53:00,
2013-01-21 06:58:00,51.4,44.7,29.97,WNW,285,0.0,0.0,78,0.00,,---,0.00,VWS V14.01,2013-01-21 11:58:00,
2013-01-21 07:03:00,51.4,44.4,29.97,WNW,285,0.0,0.0,77,0.00,,---,0.00,VWS V14.01,2013-01-21 12:03:00,
2013-01-21 07:08:00,51.4,44.4,29.97,WNW,285,0.0,0.0,77,0.00,,---,0.00,VWS V14.01,2013-01-21 12:08:00,
2013-01-21 07:13:00,51.4,44.0,29.97,WNW,285,0.0,0.0,76,0.00,,---,0.00,VWS V14.01,2013-01-21 12:13:00,
2013-01-21 07:18:00,51.4,43.6,29.97,WNW,285,0.0,0.0,75,0.00,,---,0.00,VWS V14.01,2013-01-21 12:18:00,
2013-01-21 07:23:00,51.3,43.5,30.00,WNW,285,0.0,0.0,75,0.00,,---,0.00,VWS V14.01,2013-01-21 12:23:00,
2013-01-21 07:28:00,51.3,43.5,30.00,WNW,285,0.0,0.0,75,0.00,,---,0.00,VWS V14.01,2013-01-21 12:28:00,
2013-01-21 07:33:00,51.4,43.6,30.00,WNW,285,0.0,0.0,75,0.00,,---,0.00,VWS V14.01,2013-01-21 12:33:00,
2013-01-21 07:38:00,51.6,44.2,30.00,WNW,284,0.0,0.0,76,0.00,,---,0.00,VWS V14.01,2013-01-21 12:38:00,
2013-01-21 07:43:00,51.8,44.0,29.97,WNW,285,0.0,0.0,75,0.00,,---,0.00,VWS V14.01,2013-01-21 12:43:00,
2013-01-21 07:48:00,52.2,44.3,29.97,WNW,285,0.0,0.0,75,0.00,,---,0.00,VWS V14.01,2013-01-21 12:48:00,
2013-01-21 07:53:00,52.5,44.7,29.97,WNW,284,0.0,0.0,75,0.00,,---,0.00,VWS V14.01,2013-01-21 12:53:00,
2013-01-21 07:58:00,52.9,44.7,30.00,WNW,285,0.0,0.0,74,0.00,,---,0.00,VWS V14.01,2013-01-21 12:58:00,
2013-01-21 08:03:00,53.1,44.5,30.00,WNW,285,0.0,0.0,72,0.00,,---,0.00,VWS V14.01,2013-01-21 13:03:00,
2013-01-21 08:08:00,53.1,43.7,30.00,WNW,285,0.0,0.0,70,0.00,,---,0.00,VWS V14.01,2013-01-21 13:08:00,
2013-01-21 08:13:00,53.1,43.7,30.00,WNW,284,0.0,0.0,70,0.00,,---,0.00,VWS V14.01,2013-01-21 13:13:00,
2013-01-21 08:18:00,53.2,43.8,30.00,WNW,285,0.0,0.0,70,0.00,,---,0.00,VWS V14.01,2013-01-21 13:18:00,
2013-01-21 08:23:00,53.8,44.4,30.00,WNW,285,0.0,0.0,70,0.00,,---,0.00,VWS V14.01,2013-01-21 13:23:00,
2013-01-21 08:28:00,54.1,43.9,30.00,WNW,284,2.2,2.2,68,0.00,,---,0.00,VWS V14.01,2013-01-21 13:28:00,
2013-01-21 08:33:00,54.5,43.9,30.00,NW,318,2.2,3.6,67,0.00,,---,0.00,VWS V14.01,2013-01-21 13:33:00,
2013-01-21 08:38:00,54.9,43.4,30.00,NNW,334,0.0,0.0,65,0.00,,---,0.00,VWS V14.01,2013-01-21 13:38:00,
2013-01-21 08:43:00,55.2,42.9,30.00,NW,321,0.0,0.0,63,0.00,,---,0.00,VWS V14.01,2013-01-21 13:43:00,
2013-01-21 08:48:00,55.8,42.0,30.00,North,5,0.0,0.0,60,0.00,,---,0.00,VWS V14.01,2013-01-21 13:48:00,
2013-01-21 08:53:00,57.4,42.6,30.00,NNW,331,0.0,0.0,58,0.00,,---,0.00,VWS V14.01,2013-01-21 13:53:00,
2013-01-21 08:58:00,58.1,39.8,30.00,NW,326,0.0,0.0,50,0.00,,---,0.00,VWS V14.01,2013-01-21 13:58:00,
2013-01-21 09:03:00,60.1,40.5,30.00,NW,324,0.0,0.0,48,0.00,,---,0.00,VWS V14.01,2013-01-21 14:03:00,
2013-01-21 09:08:00,60.3,38.3,30.03,North,353,0.0,0.0,44,0.00,,---,0.00,VWS V14.01,2013-01-21 14:08:00,
2013-01-21 09:13:00,59.7,37.2,30.03,NW,314,0.0,0.0,43,0.00,,---,0.00,VWS V14.01,2013-01-21 14:13:00,
2013-01-21 09:18:00,59.2,36.1,30.03,North,349,0.0,0.0,42,0.00,,---,0.00,VWS V14.01,2013-01-21 14:18:00,
2013-01-21 09:23:00,58.8,35.8,30.03,North,349,0.0,0.0,42,0.00,,---,0.00,VWS V14.01,2013-01-21 14:23:00,
2013-01-21 09:28:00,58.8,37.0,30.03,North,349,0.0,0.0,44,0.00,,---,0.00,VWS V14.01,2013-01-21 14:28:00,
2013-01-21 09:33:00,58.6,37.5,30.03,North,349,0.0,0.0,45,0.00,,---,0.00,VWS V14.01,2013-01-21 14:33:00,
2013-01-21 09:38:00,58.8,37.6,30.03,North,349,0.0,0.0,45,0.00,,---,0.00,VWS V14.01,2013-01-21 14:38:00,
2013-01-21 09:43:00,59.0,37.2,30.03,North,349,0.0,0.0,44,0.00,,---,0.00,VWS V14.01,2013-01-21 14:43:00,
2013-01-21 09:48:00,59.5,37.1,30.03,NNW,334,2.2,2.2,43,0.00,,---,0.00,VWS V14.01,2013-01-21 14:48:00,
2013-01-21 09:53:00,59.7,36.0,30.00,NNW,331,0.0,0.0,41,0.00,,---,0.00,VWS V14.01,2013-01-21 14:53:00,
2013-01-21 09:58:00,60.3,36.5,30.00,NNE,12,0.0,0.0,41,0.00,,---,0.00,VWS V14.01,2013-01-21 14:58:00,
2013-01-21 10:03:00,60.6,36.1,30.00,NW,324,3.1,4.0,40,0.00,,---,0.00,VWS V14.01,2013-01-21 15:03:00,
2013-01-21 10:08:00,61.0,35.8,30.00,NW,321,0.0,0.0,39,0.00,,---,0.00,VWS V14.01,2013-01-21 15:08:00,
2013-01-21 10:13:00,61.3,35.4,30.03,North,8,4.9,4.9,38,0.00,,---,0.00,VWS V14.01,2013-01-21 15:13:00,
2013-01-21 10:18:00,61.5,35.6,30.03,North,357,3.6,3.6,38,0.00,,---,0.00,VWS V14.01,2013-01-21 15:18:00,
2013-01-21 10:23:00,61.9,35.2,30.03,North,2,0.0,0.0,37,0.00,,---,0.00,VWS V14.01,2013-01-21 15:23:00,
2013-01-21 10:28:00,62.1,35.3,30.03,NNW,344,0.0,0.0,37,0.00,,---,0.00,VWS V14.01,2013-01-21 15:28:00,
2013-01-21 10:33:00,62.2,36.2,30.03,NNW,344,2.2,2.2,38,0.00,,---,0.00,VWS V14.01,2013-01-21 15:33:00,
2013-01-21 10:38:00,62.4,35.7,30.03,NW,304,0.0,0.0,37,0.00,,---,0.00,VWS V14.01,2013-01-21 15:38:00,
2013-01-21 10:43:00,62.8,35.2,30.03,North,353,0.0,0.0,36,0.00,,---,0.00,VWS V14.01,2013-01-21 15:43:00,
2013-01-21 10:48:00,63.3,35.7,30.03,NNE,16,0.0,2.7,36,0.00,,---,0.00,VWS V14.01,2013-01-21 15:48:00,
2013-01-21 10:53:00,64.0,36.4,30.03,North,10,0.0,3.1,36,0.00,,---,0.00,VWS V14.01,2013-01-21 15:53:00,
2013-01-21 10:58:00,64.8,36.2,30.03,WNW,302,0.0,2.2,35,0.00,,---,0.00,VWS V14.01,2013-01-21 15:58:00,
2013-01-21 11:03:00,65.1,36.6,30.03,NW,326,4.0,5.4,35,0.00,,---,0.00,VWS V14.01,2013-01-21 16:03:00,
2013-01-21 11:08:00,65.3,35.9,30.03,North,350,0.0,0.0,34,0.00,,---,0.00,VWS V14.01,2013-01-21 16:08:00,
2013-01-21 11:13:00,65.3,36.7,30.03,WNW,294,2.7,2.7,35,0.00,,---,0.00,VWS V14.01,2013-01-21 16:13:00,
2013-01-21 11:18:00,65.7,36.3,30.03,North,357,0.0,2.7,34,0.00,,---,0.00,VWS V14.01,2013-01-21 16:18:00,
2013-01-21 11:23:00,66.0,35.0,30.03,NW,321,6.3,6.3,31,0.00,,---,0.00,VWS V14.01,2013-01-21 16:23:00,
2013-01-21 11:28:00,66.2,33.4,30.03,NW,310,4.0,6.3,29,0.00,,---,0.00,VWS V14.01,2013-01-21 16:28:00,
2013-01-21 11:33:00,66.2,35.1,30.03,NW,307,2.7,2.7,31,0.00,,---,0.00,VWS V14.01,2013-01-21 16:33:00,
2013-01-21 11:38:00,66.2,32.5,30.03,West,268,2.7,3.1,28,0.00,,---,0.00,VWS V14.01,2013-01-21 16:38:00,
2013-01-21 11:43:00,66.4,34.4,30.03,NNW,329,5.4,5.4,30,0.00,,---,0.00,VWS V14.01,2013-01-21 16:43:00,
2013-01-21 11:48:00,66.6,34.6,30.03,WNW,290,3.1,5.4,30,0.00,,---,0.00,VWS V14.01,2013-01-21 16:48:00,
2013-01-21 11:53:00,66.9,34.0,30.03,NNW,328,0.0,0.0,29,0.00,,---,0.00,VWS V14.01,2013-01-21 16:53:00,
2013-01-21 11:58:00,66.9,34.9,30.00,WNW,295,0.0,0.0,30,0.00,,---,0.00,VWS V14.01,2013-01-21 16:58:00,
2013-01-21 12:03:00,66.9,34.0,30.00,North,353,0.0,0.0,29,0.00,,---,0.00,VWS V14.01,2013-01-21 17:03:00,
2013-01-21 12:08:00,67.1,35.0,30.00,North,357,2.7,2.7,30,0.00,,---,0.00,VWS V14.01,2013-01-21 17:08:00,
2013-01-21 12:13:00,67.3,34.3,30.00,WNW,298,3.6,3.6,29,0.00,,---,0.00,VWS V14.01,2013-01-21 17:13:00,
2013-01-21 12:18:00,67.6,34.6,30.00,North,11,3.1,3.6,29,0.00,,---,0.00,VWS V14.01,2013-01-21 17:18:00,
2013-01-21 12:23:00,68.2,34.2,29.97,North,353,3.6,3.6,28,0.00,,---,0.00,VWS V14.01,2013-01-21 17:23:00,
2013-01-21 12:28:00,68.5,33.5,29.97,NW,305,4.0,5.4,27,0.00,,---,0.00,VWS V14.01,2013-01-21 17:28:00,
2013-01-21 12:33:00,68.7,33.7,29.97,NNW,332,4.0,4.0,27,0.00,,---,0.00,VWS V14.01,2013-01-21 17:33:00,
2013-01-21 12:38:00,68.9,33.8,29.97,North,0,3.6,4.9,27,0.00,,---,0.00,VWS V14.01,2013-01-21 17:38:00,
2013-01-21 12:43:00,69.1,34.0,29.97,WNW,283,4.0,4.0,27,0.00,,---,0.00,VWS V14.01,2013-01-21 17:43:00,
2013-01-21 12:48:00,69.3,34.2,29.97,WNW,298,5.4,5.4,27,0.00,,---,0.00,VWS V14.01,2013-01-21 17:48:00,
2013-01-21 12:53:00,70.2,34.0,29.97,WNW,299,4.9,4.9,26,0.00,,---,0.00,VWS V14.01,2013-01-21 17:53:00,
2013-01-21 12:58:00,72.5,33.8,29.97,NW,320,4.0,4.0,24,0.00,,---,0.00,VWS V14.01,2013-01-21 17:58:00,
2013-01-21 13:03:00,73.4,32.3,29.97,NW,307,6.3,8.1,22,0.00,,---,0.00,VWS V14.01,2013-01-21 18:03:00,
2013-01-21 13:08:00,74.3,33.1,29.97,NNW,329,4.0,4.0,22,0.00,,---,0.00,VWS V14.01,2013-01-21 18:08:00,
2013-01-21 13:13:00,74.1,32.9,29.97,NW,322,5.4,5.4,22,0.00,,---,0.00,VWS V14.01,2013-01-21 18:13:00,
2013-01-21 13:18:00,74.5,33.2,29.97,NNW,341,5.8,5.8,22,0.00,,---,0.00,VWS V14.01,2013-01-21 18:18:00,
2013-01-21 13:23:00,74.8,33.5,29.97,NNW,328,3.6,7.6,22,0.00,,---,0.00,VWS V14.01,2013-01-21 18:23:00,
2013-01-21 13:28:00,74.5,33.2,29.94,NW,315,6.3,6.3,22,0.00,,---,0.00,VWS V14.01,2013-01-21 18:28:00,
2013-01-21 13:33:00,72.9,33.0,29.94,NNW,330,5.4,5.8,23,0.00,,---,0.00,VWS V14.01,2013-01-21 18:33:00,
2013-01-21 13:38:00,72.0,32.3,29.94,NW,320,3.6,8.3,23,0.00,,---,0.00,VWS V14.01,2013-01-21 18:38:00,
2013-01-21 13:43:00,71.2,32.8,29.94,WSW,238,4.0,4.0,24,0.00,,---,0.00,VWS V14.01,2013-01-21 18:43:00,
2013-01-21 13:48:00,70.7,33.4,29.94,West,270,3.1,8.3,25,0.00,,---,0.00,VWS V14.01,2013-01-21 18:48:00,
2013-01-21 13:53:00,70.7,32.3,29.94,NW,312,2.2,4.0,24,0.00,,---,0.00,VWS V14.01,2013-01-21 18:53:00,
2013-01-21 13:58:00,70.7,32.3,29.94,WNW,297,4.9,6.7,24,0.00,,---,0.00,VWS V14.01,2013-01-21 18:58:00,
2013-01-21 14:03:00,70.3,32.0,29.94,WNW,301,7.6,7.6,24,0.00,,---,0.00,VWS V14.01,2013-01-21 19:03:00,
2013-01-21 14:08:00,70.2,31.9,29.94,NW,316,2.2,4.9,24,0.00,,---,0.00,VWS V14.01,2013-01-21 19:08:00,
2013-01-21 14:13:00,70.0,31.7,29.94,NW,320,5.8,7.6,24,0.00,,---,0.00,VWS V14.01,2013-01-21 19:13:00,
2013-01-21 14:18:00,69.8,31.6,29.94,North,349,5.4,6.3,24,0.00,,---,0.00,VWS V14.01,2013-01-21 19:18:00,
2013-01-21 14:23:00,69.8,31.6,29.94,NNW,348,4.0,7.6,24,0.00,,---,0.00,VWS V14.01,2013-01-21 19:23:00,
2013-01-21 14:28:00,69.6,32.5,29.94,NNW,336,5.4,5.4,25,0.00,,---,0.00,VWS V14.01,2013-01-21 19:28:00,
2013-01-21 14:33:00,69.3,31.1,29.94,SW,223,2.2,6.3,24,0.00,,---,0.00,VWS V14.01,2013-01-21 19:33:00,
2013-01-21 14:38:00,69.4,32.3,29.94,NW,308,6.3,6.3,25,0.00,,---,0.00,VWS V14.01,2013-01-21 19:38:00,
2013-01-21 14:43:00,69.4,33.3,29.94,North,349,0.0,2.2,26,0.00,,---,0.00,VWS V14.01,2013-01-21 19:43:00,
2013-01-21 14:48:00,69.4,32.3,29.94,WNW,289,2.7,3.1,25,0.00,,---,0.00,VWS V14.01,2013-01-21 19:48:00,
2013-01-21 14:53:00,69.1,31.0,29.94,West,281,4.0,6.3,24,0.00,,---,0.00,VWS V14.01,2013-01-21 19:53:00,
2013-01-21 14:58:00,69.1,32.0,29.94,West,279,7.6,8.7,25,0.00,,---,0.00,VWS V14.01,2013-01-21 19:58:00,
2013-01-21 15:03:00,69.1,33.0,29.94,WNW,294,5.8,5.8,26,0.00,,---,0.00,VWS V14.01,2013-01-21 20:03:00,
2013-01-21 15:09:00,69.3,32.2,29.94,WNW,303,4.0,5.4,25,0.00,,---,0.00,VWS V14.01,2013-01-21 20:09:00,
2013-01-21 15:14:00,69.6,33.5,29.94,NNW,334,7.2,7.2,26,0.00,,---,0.00,VWS V14.01,2013-01-21 20:14:00,
2013-01-21 15:19:00,69.4,32.3,29.94,WNW,286,5.4,5.4,25,0.00,,---,0.00,VWS V14.01,2013-01-21 20:19:00,
2013-01-21 15:24:00,69.3,32.2,29.91,SW,219,3.1,3.6,25,0.00,,---,0.00,VWS V14.01,2013-01-21 20:24:00,
2013-01-21 15:29:00,68.5,31.5,29.91,SW,236,3.1,4.0,25,0.00,,---,0.00,VWS V14.01,2013-01-21 20:29:00,
2013-01-21 15:34:00,68.7,31.7,29.91,South,181,0.0,0.0,25,0.00,,---,0.00,VWS V14.01,2013-01-21 20:34:00,
2013-01-21 15:39:00,68.5,31.5,29.91,West,273,5.4,5.8,25,0.00,,---,0.00,VWS V14.01,2013-01-21 20:39:00,
2013-01-21 15:44:00,68.4,32.4,29.91,WNW,299,3.1,3.1,26,0.00,,---,0.00,VWS V14.01,2013-01-21 20:44:00,
2013-01-21 15:49:00,68.4,33.4,29.91,WNW,296,2.2,4.0,27,0.00,,---,0.00,VWS V14.01,2013-01-21 20:49:00,
2013-01-21 15:54:00,68.4,33.4,29.91,WNW,289,0.0,3.1,27,0.00,,---,0.00,VWS V14.01,2013-01-21 20:54:00,
2013-01-21 15:59:00,68.4,33.4,29.91,NNW,328,3.1,4.9,27,0.00,,---,0.00,VWS V14.01,2013-01-21 20:59:00,
2013-01-21 16:04:00,68.2,32.3,29.91,WNW,293,0.0,0.0,26,0.00,,---,0.00,VWS V14.01,2013-01-21 21:04:00,
2013-01-21 16:09:00,68.0,33.1,29.91,NW,320,5.8,5.8,27,0.00,,---,0.00,VWS V14.01,2013-01-21 21:09:00,
2013-01-21 16:14:00,67.8,32.0,29.91,WNW,302,8.1,8.1,26,0.00,,---,0.00,VWS V14.01,2013-01-21 21:14:00,
2013-01-21 16:19:00,67.6,33.7,29.91,WNW,300,2.7,3.1,28,0.00,,---,0.00,VWS V14.01,2013-01-21 21:19:00,
2013-01-21 16:24:00,67.5,33.5,29.91,WNW,303,4.0,4.9,28,0.00,,---,0.00,VWS V14.01,2013-01-21 21:24:00,
2013-01-21 16:29:00,67.3,33.4,29.91,WNW,289,3.6,5.4,28,0.00,,---,0.00,VWS V14.01,2013-01-21 21:29:00,
2013-01-21 16:34:00,67.1,34.2,29.91,WNW,290,0.0,0.0,29,0.00,,---,0.00,VWS V14.01,2013-01-21 21:34:00,
2013-01-21 16:38:00,67.1,33.2,29.94,WNW,299,2.7,5.4,28,0.00,,---,0.00,VWS V14.01,2013-01-21 21:38:00,
2013-01-21 16:43:00,67.1,33.2,29.94,WNW,295,3.6,5.8,28,0.00,,---,0.00,VWS V14.01,2013-01-21 21:43:00,
2013-01-21 16:48:00,66.7,33.8,29.94,NW,311,3.6,3.6,29,0.00,,---,0.00,VWS V14.01,2013-01-21 21:48:00,
2013-01-21 16:53:00,66.6,33.7,29.94,WNW,291,3.6,4.0,29,0.00,,---,0.00,VWS V14.01,2013-01-21 21:53:00,
2013-01-21 16:58:00,66.4,32.6,29.91,West,266,2.7,3.1,28,0.00,,---,0.00,VWS V14.01,2013-01-21 21:58:00,
2013-01-21 17:03:00,66.2,32.5,29.91,WSW,243,0.0,0.0,28,0.00,,---,0.00,VWS V14.01,2013-01-21 22:03:00,
2013-01-21 17:08:00,66.0,33.2,29.94,West,262,0.0,0.0,29,0.00,,---,0.00,VWS V14.01,2013-01-21 22:08:00,
2013-01-21 17:13:00,65.8,33.9,29.94,WNW,296,0.0,0.0,30,0.00,,---,0.00,VWS V14.01,2013-01-21 22:13:00,
2013-01-21 17:19:00,65.7,34.6,29.94,WNW,291,0.0,0.0,31,0.00,,---,0.00,VWS V14.01,2013-01-21 22:19:00,
2013-01-21 17:24:00,65.5,34.5,29.94,West,271,0.0,0.0,31,0.00,,---,0.00,VWS V14.01,2013-01-21 22:24:00,
2013-01-21 17:29:00,65.3,34.3,29.94,West,271,0.0,0.0,31,0.00,,---,0.00,VWS V14.01,2013-01-21 22:29:00,
2013-01-21 17:34:00,64.9,34.8,29.94,NW,316,0.0,0.0,33,0.00,,---,0.00,VWS V14.01,2013-01-21 22:34:00,
2013-01-21 17:39:00,64.8,35.5,29.94,WNW,286,0.0,0.0,34,0.00,,---,0.00,VWS V14.01,2013-01-21 22:39:00,
2013-01-21 17:44:00,64.6,35.3,29.94,NW,326,0.0,0.0,34,0.00,,---,0.00,VWS V14.01,2013-01-21 22:44:00,
2013-01-21 17:49:00,64.2,35.8,29.94,WNW,293,0.0,0.0,35,0.00,,---,0.00,VWS V14.01,2013-01-21 22:49:00,
2013-01-21 17:53:00,64.0,35.6,29.94,WNW,300,0.0,0.0,35,0.00,,---,0.00,VWS V14.01,2013-01-21 22:53:00,
2013-01-21 17:58:00,63.7,36.0,29.94,WNW,300,0.0,0.0,36,0.00,,---,0.00,VWS V14.01,2013-01-21 22:58:00,
2013-01-21 18:03:00,63.1,35.6,29.94,WNW,300,0.0,0.0,36,0.00,,---,0.00,VWS V14.01,2013-01-21 23:03:00,
2013-01-21 18:09:00,63.0,35.4,29.94,WNW,301,0.0,0.0,36,0.00,,---,0.00,VWS V14.01,2013-01-21 23:09:00,
2013-01-21 18:13:00,62.6,35.1,29.94,WNW,300,0.0,0.0,36,0.00,,---,0.00,VWS V14.01,2013-01-21 23:13:00,
2013-01-21 18:19:00,62.4,35.7,29.94,WNW,300,0.0,0.0,37,0.00,,---,0.00,VWS V14.01,2013-01-21 23:19:00,
2013-01-21 18:24:00,62.2,35.5,29.94,WNW,300,0.0,0.0,37,0.00,,---,0.00,VWS V14.01,2013-01-21 23:24:00,
2013-01-21 18:29:00,62.1,36.0,29.94,WNW,300,0.0,0.0,38,0.00,,---,0.00,VWS V14.01,2013-01-21 23:29:00,
2013-01-21 18:34:00,61.9,35.9,29.94,NW,312,0.0,0.0,38,0.00,,---,0.00,VWS V14.01,2013-01-21 23:34:00,
2013-01-21 18:39:00,61.7,35.7,29.94,NW,306,0.0,0.0,38,0.00,,---,0.00,VWS V14.01,2013-01-21 23:39:00,
2013-01-21 18:44:00,61.7,35.7,29.94,NW,322,0.0,0.0,38,0.00,,---,0.00,VWS V14.01,2013-01-21 23:44:00,
2013-01-21 18:49:00,61.5,35.6,29.94,NW,316,0.0,0.0,38,0.00,,---,0.00,VWS V14.01,2013-01-21 23:49:00,
2013-01-21 18:54:00,61.3,35.4,29.94,WNW,295,0.0,0.0,38,0.00,,---,0.00,VWS V14.01,2013-01-21 23:54:00,
2013-01-21 18:59:00,61.0,35.8,29.94,WNW,295,0.0,0.0,39,0.00,,---,0.00,VWS V14.01,2013-01-21 23:59:00,
2013-01-21 19:04:00,60.8,35.6,29.94,WNW,295,0.0,0.0,39,0.00,,---,0.00,VWS V14.01,2013-01-22 00:04:00,
2013-01-21 19:09:00,60.4,36.0,29.94,WNW,295,0.0,0.0,40,0.00,,---,0.00,VWS V14.01,2013-01-22 00:09:00,
2013-01-21 19:14:00,60.3,35.8,29.94,WNW,295,0.0,0.0,40,0.00,,---,0.00,VWS V14.01,2013-01-22 00:14:00,
2013-01-21 19:19:00,59.9,36.1,29.94,WNW,295,0.0,0.0,41,0.00,,---,0.00,VWS V14.01,2013-01-22 00:19:00,
2013-01-21 19:24:00,59.7,36.0,29.94,WNW,302,0.0,0.0,41,0.00,,---,0.00,VWS V14.01,2013-01-22 00:24:00,
2013-01-21 19:29:00,59.7,36.0,29.94,WNW,293,2.2,2.2,41,0.00,,---,0.00,VWS V14.01,2013-01-22 00:29:00,
2013-01-21 19:34:00,59.7,36.6,29.94,NW,314,0.0,0.0,42,0.00,,---,0.00,VWS V14.01,2013-01-22 00:34:00,
2013-01-21 19:39:00,59.9,36.1,29.94,WNW,287,3.1,4.0,41,0.00,,---,0.00,VWS V14.01,2013-01-22 00:39:00,
2013-01-21 19:44:00,60.1,35.6,29.94,NW,310,2.7,3.1,40,0.00,,---,0.00,VWS V14.01,2013-01-22 00:44:00,
2013-01-21 19:49:00,60.1,36.3,29.94,NW,318,0.0,2.7,41,0.00,,---,0.00,VWS V14.01,2013-01-22 00:49:00,
2013-01-21 19:54:00,60.1,35.6,29.97,NW,310,0.0,0.0,40,0.00,,---,0.00,VWS V14.01,2013-01-22 00:54:00,
2013-01-21 19:59:00,59.9,36.1,29.97,NNW,333,3.1,3.1,41,0.00,,---,0.00,VWS V14.01,2013-01-22 00:59:00,
2013-01-21 20:04:00,59.7,36.0,29.97,NW,307,0.0,0.0,41,0.00,,---,0.00,VWS V14.01,2013-01-22 01:04:00,
2013-01-21 20:09:00,59.5,35.8,29.97,NW,323,0.0,0.0,41,0.00,,---,0.00,VWS V14.01,2013-01-22 01:09:00,
2013-01-21 20:14:00,59.4,35.7,29.97,NW,317,2.2,2.2,41,0.00,,---,0.00,VWS V14.01,2013-01-22 01:14:00,
2013-01-21 20:19:00,59.2,36.1,29.97,NW,316,0.0,0.0,42,0.00,,---,0.00,VWS V14.01,2013-01-22 01:19:00,
2013-01-21 20:24:00,58.8,36.4,29.97,NW,309,0.0,2.7,43,0.00,,---,0.00,VWS V14.01,2013-01-22 01:24:00,
2013-01-21 20:29:00,58.6,36.9,29.97,NW,311,2.2,2.2,44,0.00,,---,0.00,VWS V14.01,2013-01-22 01:29:00,
2013-01-21 20:34:00,58.5,36.1,29.97,NW,326,0.0,0.0,43,0.00,,---,0.00,VWS V14.01,2013-01-22 01:34:00,
2013-01-21 20:39:00,58.5,36.7,29.97,NW,318,0.0,3.1,44,0.00,,---,0.00,VWS V14.01,2013-01-22 01:39:00,
2013-01-21 20:44:00,58.3,35.9,29.97,NW,311,0.0,0.0,43,0.00,,---,0.00,VWS V14.01,2013-01-22 01:44:00,
2013-01-21 20:49:00,58.3,35.9,29.97,NNW,340,0.0,0.0,43,0.00,,---,0.00,VWS V14.01,2013-01-22 01:49:00,
2013-01-21 20:54:00,58.3,35.9,29.97,NW,312,0.0,0.0,43,0.00,,---,0.00,VWS V14.01,2013-01-22 01:54:00,
2013-01-21 20:59:00,58.1,35.2,29.97,NW,325,0.0,0.0,42,0.00,,---,0.00,VWS V14.01,2013-01-22 01:59:00,
2013-01-21 21:04:00,58.1,35.2,29.97,NW,310,0.0,0.0,42,0.00,,---,0.00,VWS V14.01,2013-01-22 02:04:00,
2013-01-21 21:09:00,57.9,34.3,29.97,NW,305,2.2,2.2,41,0.00,,---,0.00,VWS V14.01,2013-01-22 02:09:00,
2013-01-21 21:14:00,57.9,34.3,29.97,NNW,341,3.1,3.1,41,0.00,,---,0.00,VWS V14.01,2013-01-22 02:14:00,
2013-01-21 21:19:00,57.7,33.5,29.97,NW,319,0.0,3.6,40,0.00,,---,0.00,VWS V14.01,2013-01-22 02:19:00,
2013-01-21 21:24:00,57.7,33.5,29.97,NNW,327,3.6,4.9,40,0.00,,---,0.00,VWS V14.01,2013-01-22 02:24:00,
2013-01-21 21:29:00,57.6,33.4,29.97,NW,325,5.8,5.8,40,0.00,,---,0.00,VWS V14.01,2013-01-22 02:29:00,
2013-01-21 21:34:00,57.6,33.4,29.97,NNW,345,5.8,5.8,40,0.00,,---,0.00,VWS V14.01,2013-01-22 02:34:00,
2013-01-21 21:39:00,57.6,32.7,30.00,NW,304,0.0,0.0,39,0.00,,---,0.00,VWS V14.01,2013-01-22 02:39:00,
2013-01-21 21:44:00,57.4,32.5,30.00,WNW,284,4.0,4.0,39,0.00,,---,0.00,VWS V14.01,2013-01-22 02:44:00,
2013-01-21 21:49:00,57.2,32.4,30.00,NNW,337,3.6,3.6,39,0.00,,---,0.00,VWS V14.01,2013-01-22 02:49:00,
2013-01-21 21:54:00,57.2,32.4,30.00,WNW,296,0.0,0.0,39,0.00,,---,0.00,VWS V14.01,2013-01-22 02:54:00,
2013-01-21 21:59:00,57.0,32.9,30.00,NW,320,3.1,3.1,40,0.00,,---,0.00,VWS V14.01,2013-01-22 02:59:00,
2013-01-21 22:04:00,56.8,32.7,30.00,NW,319,2.7,3.1,40,0.00,,---,0.00,VWS V14.01,2013-01-22 03:04:00,
2013-01-21 22:09:00,56.7,32.6,30.00,WNW,299,0.0,3.6,40,0.00,,---,0.00,VWS V14.01,2013-01-22 03:09:00,
2013-01-21 22:14:00,56.5,32.4,30.00,NW,308,0.0,0.0,40,0.00,,---,0.00,VWS V14.01,2013-01-22 03:14:00,
2013-01-21 22:19:00,56.3,32.2,30.00,NW,326,0.0,0.0,40,0.00,,---,0.00,VWS V14.01,2013-01-22 03:19:00,
2013-01-21 22:24:00,56.3,32.2,30.00,NNW,331,0.0,0.0,40,0.00,,---,0.00,VWS V14.01,2013-01-22 03:24:00,
2013-01-21 22:29:00,56.1,32.1,30.00,NW,314,2.7,3.1,40,0.00,,---,0.00,VWS V14.01,2013-01-22 03:29:00,
2013-01-21 22:34:00,55.9,31.9,30.00,NNW,332,0.0,0.0,40,0.00,,---,0.00,VWS V14.01,2013-01-22 03:34:00,
2013-01-21 22:39:00,55.8,31.8,30.00,NW,321,0.0,0.0,40,0.00,,---,0.00,VWS V14.01,2013-01-22 03:39:00,
2013-01-21 22:44:00,55.6,32.2,30.00,NW,319,0.0,0.0,41,0.00,,---,0.00,VWS V14.01,2013-01-22 03:44:00,
2013-01-21 22:49:00,55.4,32.1,30.00,NW,319,0.0,0.0,41,0.00,,---,0.00,VWS V14.01,2013-01-22 03:49:00,
2013-01-21 22:54:00,55.0,32.4,30.00,WNW,302,0.0,0.0,42,0.00,,---,0.00,VWS V14.01,2013-01-22 03:54:00,
2013-01-21 22:59:00,54.7,32.1,30.00,NW,309,0.0,0.0,42,0.00,,---,0.00,VWS V14.01,2013-01-22 03:59:00,
2013-01-21 23:04:00,54.5,31.9,30.00,NW,307,0.0,0.0,42,0.00,,---,0.00,VWS V14.01,2013-01-22 04:04:00,
2013-01-21 23:09:00,54.5,31.9,30.00,NW,326,0.0,2.7,42,0.00,,---,0.00,VWS V14.01,2013-01-22 04:09:00,
2013-01-21 23:14:00,54.3,32.3,30.00,NW,325,0.0,0.0,43,0.00,,---,0.00,VWS V14.01,2013-01-22 04:14:00,
2013-01-21 23:19:00,54.3,32.3,30.00,NW,325,0.0,0.0,43,0.00,,---,0.00,VWS V14.01,2013-01-22 04:19:00,
2013-01-21 23:24:00,54.3,33.0,30.00,NW,322,0.0,0.0,44,0.00,,---,0.00,VWS V14.01,2013-01-22 04:24:00,
2013-01-21 23:29:00,54.1,32.2,30.00,NW,323,0.0,0.0,43,0.00,,---,0.00,VWS V14.01,2013-01-22 04:29:00,
2013-01-21 23:34:00,54.0,32.6,30.00,NW,309,0.0,0.0,44,0.00,,---,0.00,VWS V14.01,2013-01-22 04:34:00,
2013-01-21 23:39:00,54.1,32.8,30.00,NW,316,0.0,2.7,44,0.00,,---,0.00,VWS V14.01,2013-01-22 04:39:00,
2013-01-21 23:44:00,54.3,33.0,30.00,NNW,329,0.0,2.2,44,0.00,,---,0.00,VWS V14.01,2013-01-22 04:44:00,
2013-01-21 23:49:00,54.3,33.0,30.00,NNW,327,0.0,0.0,44,0.00,,---,0.00,VWS V14.01,2013-01-22 04:49:00,
2013-01-21 23:54:00,54.3,33.0,30.00,NNW,327,0.0,0.0,44,0.00,,---,0.00,VWS V14.01,2013-01-22 04:54:00,
2013-01-21 23:59:00,54.3,33.0,30.00,NNW,327,2.2,2.2,44,0.00,,---,0.00,VWS V14.01,2013-01-22 04:59:00,